owner,sensor,date,latitude,longitude,vertical_datum,wind_speed,wind_to_direction,wind_speed_of_gust,qcFlag 
TABS,ioos:station:wmo:42046:1,2005-12-01T00:00:00Z,27.8903,-94.0367,4.0,5.213923666,151.2231846,7.13,'11111222,11111222,11111222' 
TABS,ioos:station:wmo:42046:1,2005-12-01T00:30:00Z,27.8903,-94.0367,4.0,6.715504449,150.7633631,8.61,'11111222,11111222,11111222' 
TABS,ioos:station:wmo:42046:1,2005-12-01T01:00:00Z,27.8903,-94.0367,4.0,6.571795797,158.3931286,9.48,'11111222,11111222,11111222' 
TABS,ioos:station:wmo:42046:1,2005-12-01T01:30:00Z,27.8903,-94.0367,4.0,6.15201593,156.2269026,8.94,'11111222,11111222,11111222' 
TABS,ioos:station:wmo:42046:1,2005-12-01T02:00:00Z,27.8903,-94.0367,4.0,6.242595614,162.087743,8.34,'11111222,11111222,11111222' 
TABS,ioos:station:wmo:42046:1,2005-12-01T02:30:00Z,27.8903,-94.0367,4.0,7.611267963,164.375398,9.96,'11111222,11111222,11111222' 
TABS,ioos:station:wmo:42046:1,2005-12-01T03:00:00Z,27.8903,-94.0367,4.0,7.990775932,156.0013762,10.17,'11111222,11111222,11111222' 
TABS,ioos:station:wmo:42046:1,2005-12-01T03:30:00Z,27.8903,-94.0367,4.0,8.016489257,158.3315727,10.38,'11111222,11111222,11111222' 
TABS,ioos:station:wmo:42046:1,2005-12-01T04:00:00Z,27.8903,-94.0367,4.0,7.899398711,165.8584507,10.36,'11111222,11111222,11111222' 
TABS,ioos:station:wmo:42046:1,2005-12-01T04:30:00Z,27.8903,-94.0367,4.0,8.202877544,165.4557726,11.07,'11111222,11111222,11111222' 
TABS,ioos:station:wmo:42046:1,2005-12-01T05:00:00Z,27.8903,-94.0367,4.0,8.28440704,163.6653501,10.87,'11111222,11111222,11111222' 
TABS,ioos:station:wmo:42046:1,2005-12-01T05:30:00Z,27.8903,-94.0367,4.0,7.888143001,168.1489892,10.79,'11111222,11111222,11111222' 
TABS,ioos:station:wmo:42046:1,2005-12-01T06:00:00Z,27.8903,-94.0367,4.0,7.080459025,161.8979689,9.47,'11111222,11111222,11111222' 
TABS,ioos:station:wmo:42046:1,2005-12-01T06:30:00Z,27.8903,-94.0367,4.0,7.273513594,169.8644844,10.02,'11111222,11111222,11111222' 
TABS,ioos:station:wmo:42046:1,2005-12-01T07:00:00Z,27.8903,-94.0367,4.0,6.60739737,173.133346,8.48,'11111222,11111222,11111222' 
TABS,ioos:station:wmo:42046:1,2005-12-01T07:30:00Z,27.8903,-94.0367,4.0,5.07326325,173.4355415,7.03,'11111222,11111222,11111222' 
TABS,ioos:station:wmo:42046:1,2005-12-01T08:00:00Z,27.8903,-94.0367,4.0,4.576985908,170.9495099,6.36,'11111222,11111222,11111222' 
TABS,ioos:station:wmo:42046:1,2005-12-01T08:30:00Z,27.8903,-94.0367,4.0,5.591967453,169.5945801,8.05,'11111222,11111222,11111222' 
TABS,ioos:station:wmo:42046:1,2005-12-01T09:00:00Z,27.8903,-94.0367,4.0,6.184254199,173.9669716,7.99,'11111222,11111222,11111222' 
TABS,ioos:station:wmo:42046:1,2005-12-01T09:30:00Z,27.8903,-94.0367,4.0,5.976102409,177.4107147,7.73,'11111222,11111222,11111222' 
TABS,ioos:station:wmo:42046:1,2005-12-01T10:00:00Z,27.8903,-94.0367,4.0,6.253199181,181.8330457,8.26,'11111222,11111222,11111222' 
TABS,ioos:station:wmo:42046:1,2005-12-01T10:30:00Z,27.8903,-94.0367,4.0,6.113894013,187.6134144,7.99,'11111222,11111222,11111222' 
TABS,ioos:station:wmo:42046:1,2005-12-01T11:00:00Z,27.8903,-94.0367,4.0,5.675253298,189.9438358,8.07,'11111222,11111222,11111222' 
TABS,ioos:station:wmo:42046:1,2005-12-01T11:30:00Z,27.8903,-94.0367,4.0,5.791804555,189.6414064,7.51,'11111222,11111222,11111222' 
TABS,ioos:station:wmo:42046:1,2005-12-01T12:00:00Z,27.8903,-94.0367,4.0,5.014987537,185.7221584,6.72,'11111222,11111222,11111222' 
TABS,ioos:station:wmo:42046:1,2005-12-01T12:30:00Z,27.8903,-94.0367,4.0,5.529565987,192.4278393,7.2,'11111222,11111222,11111222' 
TABS,ioos:station:wmo:42046:1,2005-12-01T13:00:00Z,27.8903,-94.0367,4.0,5.884895921,200.2827221,7.42,'11111222,11111222,11111222' 
TABS,ioos:station:wmo:42046:1,2005-12-01T13:30:00Z,27.8903,-94.0367,4.0,6.289427637,193.3293761,8.17,'11111222,11111222,11111222' 
TABS,ioos:station:wmo:42046:1,2005-12-01T14:00:00Z,27.8903,-94.0367,4.0,6.602605546,194.9204131,8.33,'11111222,11111222,11111222' 
TABS,ioos:station:wmo:42046:1,2005-12-01T14:30:00Z,27.8903,-94.0367,4.0,6.047230771,186.3613135,7.44,'11111222,11111222,11111222' 
TABS,ioos:station:wmo:42046:1,2005-12-01T15:00:00Z,27.8903,-94.0367,4.0,5.806358583,197.7485999,7.19,'11111222,11111222,11111222' 
TABS,ioos:station:wmo:42046:1,2005-12-01T16:00:00Z,27.8903,-94.0367,4.0,5.999641656,199.3713349,7.77,'11111222,11111222,11111222' 
TABS,ioos:station:wmo:42046:1,2005-12-01T16:30:00Z,27.8903,-94.0367,4.0,5.911564937,202.7914989,7.26,'11111222,11111222,11111222' 
TABS,ioos:station:wmo:42046:1,2005-12-01T17:00:00Z,27.8903,-94.0367,4.0,6.334106093,198.6925587,8.03,'11111222,11111222,11111222' 
TABS,ioos:station:wmo:42046:1,2005-12-01T17:30:00Z,27.8903,-94.0367,4.0,6.534408925,200.5151575,8.47,'11111222,11111222,11111222' 
TABS,ioos:station:wmo:42046:1,2005-12-01T18:00:00Z,27.8903,-94.0367,4.0,5.150155337,180.4452162,8.02,'11111222,11111222,11111222' 
TABS,ioos:station:wmo:42046:1,2005-12-01T18:30:00Z,27.8903,-94.0367,4.0,6.250024,254.4072255,10.96,'11111222,11111222,11111222' 
TABS,ioos:station:wmo:42046:1,2005-12-01T19:00:00Z,27.8903,-94.0367,4.0,6.612087416,306.5751903,8.53,'11111222,11111222,11111222' 
TABS,ioos:station:wmo:42046:1,2005-12-01T19:30:00Z,27.8903,-94.0367,4.0,5.870136285,323.5204024,7.42,'11111222,11111222,11111222' 
TABS,ioos:station:wmo:42046:1,2005-12-01T20:00:00Z,27.8903,-94.0367,4.0,6.829736452,344.4577524,8.99,'11111222,11111222,11111222' 
TABS,ioos:station:wmo:42046:1,2005-12-01T20:30:00Z,27.8903,-94.0367,4.0,7.179317516,347.5316048,9.15,'11111222,11111222,11111222' 
TABS,ioos:station:wmo:42046:1,2005-12-01T21:00:00Z,27.8903,-94.0367,4.0,6.388020038,357.128433,8.59,'11111222,11111222,11111222' 
TABS,ioos:station:wmo:42046:1,2005-12-01T21:30:00Z,27.8903,-94.0367,4.0,6.363285315,5.862679517,7.87,'11111222,11111222,11111222' 
TABS,ioos:station:wmo:42046:1,2005-12-01T22:00:00Z,27.8903,-94.0367,4.0,6.733141911,35.81436379,8.79,'11111222,11111222,11111222' 
TABS,ioos:station:wmo:42046:1,2005-12-01T22:30:00Z,27.8903,-94.0367,4.0,5.132640646,40.89158174,6.84,'11111222,11111222,11111222' 
TABS,ioos:station:wmo:42046:1,2005-12-01T23:00:00Z,27.8903,-94.0367,4.0,4.800468727,30.41079969,6.65,'11111222,11111222,11111222' 
TABS,ioos:station:wmo:42046:1,2005-12-01T23:30:00Z,27.8903,-94.0367,4.0,5.250304753,26.71118964,7.05,'11111222,11111222,11111222' 
TABS,ioos:station:wmo:42046:1,2005-12-02T00:00:00Z,27.8903,-94.0367,4.0,5.328461316,18.60471151,6.87,'11111222,11111222,11111222' 
TABS,ioos:station:wmo:42046:1,2005-12-02T00:30:00Z,27.8903,-94.0367,4.0,5.33188522,8.737761432,7.05,'11111222,11111222,11111222' 
TABS,ioos:station:wmo:42046:1,2005-12-02T01:00:00Z,27.8903,-94.0367,4.0,4.263672126,15.92668951,5.69,'11111222,11111222,11111222' 
TABS,ioos:station:wmo:42046:1,2005-12-02T01:30:00Z,27.8903,-94.0367,4.0,4.566683698,27.51868259,6.19,'11111222,11111222,11111222' 
TABS,ioos:station:wmo:42046:1,2005-12-02T02:00:00Z,27.8903,-94.0367,4.0,5.374476719,8.883719454,6.92,'11111222,11111222,11111222' 
TABS,ioos:station:wmo:42046:1,2005-12-02T02:30:00Z,27.8903,-94.0367,4.0,5.580627205,7.723321655,7.44,'11111222,11111222,11111222' 
TABS,ioos:station:wmo:42046:1,2005-12-02T03:00:00Z,27.8903,-94.0367,4.0,6.26459895,2.195352412,7.59,'11111222,11111222,11111222' 
TABS,ioos:station:wmo:42046:1,2005-12-02T03:30:00Z,27.8903,-94.0367,4.0,6.216188543,5.260964962,8.19,'11111222,11111222,11111222' 
TABS,ioos:station:wmo:42046:1,2005-12-02T04:00:00Z,27.8903,-94.0367,4.0,7.071131451,27.36201,9.2,'11111222,11111222,11111222' 
TABS,ioos:station:wmo:42046:1,2005-12-02T04:30:00Z,27.8903,-94.0367,4.0,7.292605844,36.13105292,9.53,'11111222,11111222,11111222' 
TABS,ioos:station:wmo:42046:1,2005-12-02T05:00:00Z,27.8903,-94.0367,4.0,7.285060055,42.16228024,9.8,'11111222,11111222,11111222' 
TABS,ioos:station:wmo:42046:1,2005-12-02T05:30:00Z,27.8903,-94.0367,4.0,6.697133715,47.78353777,8.68,'11111222,11111222,11111222' 
TABS,ioos:station:wmo:42046:1,2005-12-02T06:00:00Z,27.8903,-94.0367,4.0,6.41290106,48.72970211,8.55,'11111222,11111222,11111222' 
TABS,ioos:station:wmo:42046:1,2005-12-02T06:30:00Z,27.8903,-94.0367,4.0,6.562202374,49.6351369,8.69,'11111222,11111222,11111222' 
TABS,ioos:station:wmo:42046:1,2005-12-02T07:00:00Z,27.8903,-94.0367,4.0,5.680712983,62.30686864,7.66,'11111222,11111222,11111222' 
TABS,ioos:station:wmo:42046:1,2005-12-02T07:30:00Z,27.8903,-94.0367,4.0,5.939840065,69.39842281,7.73,'11111222,11111222,11111222' 
TABS,ioos:station:wmo:42046:1,2005-12-02T08:00:00Z,27.8903,-94.0367,4.0,5.389666038,75.1640661,7.62,'11111222,11111222,11111222' 
TABS,ioos:station:wmo:42046:1,2005-12-02T08:30:00Z,27.8903,-94.0367,4.0,6.250024,74.40680461,8.36,'11111222,11111222,11111222' 
TABS,ioos:station:wmo:42046:1,2005-12-02T09:00:00Z,27.8903,-94.0367,4.0,5.781228243,72.37954555,7.42,'11111222,11111222,11111222' 
TABS,ioos:station:wmo:42046:1,2005-12-02T09:30:00Z,27.8903,-94.0367,4.0,5.825547185,68.76440075,7.58,'11111222,11111222,11111222' 
TABS,ioos:station:wmo:42046:1,2005-12-02T10:00:00Z,27.8903,-94.0367,4.0,5.536244214,73.20124658,6.98,'11111222,11111222,11111222' 
TABS,ioos:station:wmo:42046:1,2005-12-02T10:30:00Z,27.8903,-94.0367,4.0,5.638732127,72.23946469,7.19,'11111222,11111222,11111222' 
TABS,ioos:station:wmo:42046:1,2005-12-02T11:00:00Z,27.8903,-94.0367,4.0,5.181631017,88.56195925,7.15,'11111222,11111222,11111222' 
TABS,ioos:station:wmo:42046:1,2005-12-02T11:30:00Z,27.8903,-94.0367,4.0,5.406745787,92.86281945,6.99,'11111222,11111222,11111222' 
TABS,ioos:station:wmo:42046:1,2005-12-02T12:00:00Z,27.8903,-94.0367,4.0,5.214230528,92.30859287,6.79,'11111222,11111222,11111222' 
TABS,ioos:station:wmo:42046:1,2005-12-02T12:30:00Z,27.8903,-94.0367,4.0,4.717647719,83.79352094,6.19,'11111222,11111222,11111222' 
TABS,ioos:station:wmo:42046:1,2005-12-02T13:00:00Z,27.8903,-94.0367,4.0,4.927149277,82.06683932,6.76,'11111222,11111222,11111222' 
TABS,ioos:station:wmo:42046:1,2005-12-02T13:30:00Z,27.8903,-94.0367,4.0,4.788193814,93.35282033,6.14,'11111222,11111222,11111222' 
TABS,ioos:station:wmo:42046:1,2005-12-02T14:00:00Z,27.8903,-94.0367,4.0,4.66906843,109.910092,6.59,'11111222,11111222,11111222' 
TABS,ioos:station:wmo:42046:1,2005-12-02T14:30:00Z,27.8903,-94.0367,4.0,4.407323451,104.8564363,5.89,'11111222,11111222,11111222' 
TABS,ioos:station:wmo:42046:1,2005-12-02T15:00:00Z,27.8903,-94.0367,4.0,4.074530648,115.7478547,5.66,'11111222,11111222,11111222' 
TABS,ioos:station:wmo:42046:1,2005-12-02T15:30:00Z,27.8903,-94.0367,4.0,3.720215048,106.8766461,5.06,'11111222,11111222,11111222' 
TABS,ioos:station:wmo:42046:1,2005-12-02T16:00:00Z,27.8903,-94.0367,4.0,3.817970665,95.56167697,5.09,'11111222,11111222,11111222' 
TABS,ioos:station:wmo:42046:1,2005-12-02T16:30:00Z,27.8903,-94.0367,4.0,4.167601229,101.7686823,5.36,'11111222,11111222,11111222' 
TABS,ioos:station:wmo:42046:1,2005-12-02T17:00:00Z,27.8903,-94.0367,4.0,4.135746607,118.9203973,5.53,'11111222,11111222,11111222' 
TABS,ioos:station:wmo:42046:1,2005-12-02T17:30:00Z,27.8903,-94.0367,4.0,4.631306511,114.6286141,5.72,'11111222,11111222,11111222' 
TABS,ioos:station:wmo:42046:1,2005-12-02T18:00:00Z,27.8903,-94.0367,4.0,4.95625867,123.56216,6.31,'11111222,11111222,11111222' 
TABS,ioos:station:wmo:42046:1,2005-12-02T18:30:00Z,27.8903,-94.0367,4.0,4.342004146,126.9494064,5.88,'11111222,11111222,11111222' 
TABS,ioos:station:wmo:42046:1,2005-12-02T19:00:00Z,27.8903,-94.0367,4.0,4.566804134,132.0714643,6.37,'11111222,11111222,11111222' 
TABS,ioos:station:wmo:42046:1,2005-12-02T19:30:00Z,27.8903,-94.0367,4.0,3.855191305,136.5768621,4.83,'11111222,11111222,11111222' 
TABS,ioos:station:wmo:42046:1,2005-12-02T20:00:00Z,27.8903,-94.0367,4.0,4.188006686,136.7418765,5.52,'11111222,11111222,11111222' 
TABS,ioos:station:wmo:42046:1,2005-12-02T20:30:00Z,27.8903,-94.0367,4.0,4.27800187,143.0768267,5.8,'11111222,11111222,11111222' 
TABS,ioos:station:wmo:42046:1,2005-12-02T21:00:00Z,27.8903,-94.0367,4.0,4.469317621,148.7287246,5.91,'11111222,11111222,11111222' 
TABS,ioos:station:wmo:42046:1,2005-12-02T21:30:00Z,27.8903,-94.0367,4.0,4.479307982,145.9199788,5.72,'11111222,11111222,11111222' 
TABS,ioos:station:wmo:42046:1,2005-12-02T22:00:00Z,27.8903,-94.0367,4.0,4.874515361,139.7432395,6.31,'11111222,11111222,11111222' 
TABS,ioos:station:wmo:42046:1,2005-12-02T22:30:00Z,27.8903,-94.0367,4.0,4.863342472,147.6827014,6.25,'11111222,11111222,11111222' 
TABS,ioos:station:wmo:42046:1,2005-12-02T23:00:00Z,27.8903,-94.0367,4.0,5.233985097,147.0085442,6.6,'11111222,11111222,11111222' 
TABS,ioos:station:wmo:42046:1,2005-12-02T23:30:00Z,27.8903,-94.0367,4.0,5.631127773,155.893144,7.37,'11111222,11111222,11111222' 
TABS,ioos:station:wmo:42046:1,2005-12-03T00:00:00Z,27.8903,-94.0367,4.0,6.513286421,163.0398063,8.12,'11111222,11111222,11111222' 
TABS,ioos:station:wmo:42046:1,2005-12-03T00:30:00Z,27.8903,-94.0367,4.0,5.869599646,162.2444239,7.6,'11111222,11111222,11111222' 
TABS,ioos:station:wmo:42046:1,2005-12-03T01:00:00Z,27.8903,-94.0367,4.0,5.797240723,168.4577117,7.74,'11111222,11111222,11111222' 
TABS,ioos:station:wmo:42046:1,2005-12-03T01:30:00Z,27.8903,-94.0367,4.0,5.911590311,176.4117929,7.6,'11111222,11111222,11111222' 
TABS,ioos:station:wmo:42046:1,2005-12-03T02:00:00Z,27.8903,-94.0367,4.0,5.796723212,175.6470001,7.61,'11111222,11111222,11111222' 
TABS,ioos:station:wmo:42046:1,2005-12-03T02:30:00Z,27.8903,-94.0367,4.0,5.577544262,177.0198248,7.25,'11111222,11111222,11111222' 
TABS,ioos:station:wmo:42046:1,2005-12-03T03:00:00Z,27.8903,-94.0367,4.0,6.022997593,181.8079447,7.51,'11111222,11111222,11111222' 
TABS,ioos:station:wmo:42046:1,2005-12-03T03:30:00Z,27.8903,-94.0367,4.0,5.646946077,182.8423417,7.24,'11111222,11111222,11111222' 
TABS,ioos:station:wmo:42046:1,2005-12-03T04:00:00Z,27.8903,-94.0367,4.0,7.529475413,200.1197966,9.6,'11111222,11111222,11111222' 
TABS,ioos:station:wmo:42046:1,2005-12-03T04:30:00Z,27.8903,-94.0367,4.0,9.195237898,196.4248761,11.73,'11111222,11111222,11111222' 
TABS,ioos:station:wmo:42046:1,2005-12-03T05:00:00Z,27.8903,-94.0367,4.0,9.395850148,193.918103,11.36,'11111222,11111222,11111222' 
TABS,ioos:station:wmo:42046:1,2005-12-03T05:30:00Z,27.8903,-94.0367,4.0,9.108249008,191.9763149,11.63,'11111222,11111222,11111222' 
TABS,ioos:station:wmo:42046:1,2005-12-03T06:00:00Z,27.8903,-94.0367,4.0,9.469028461,192.6274349,12.28,'11111222,11111222,11111222' 
TABS,ioos:station:wmo:42046:1,2005-12-03T06:30:00Z,27.8903,-94.0367,4.0,10.00291957,192.1189425,12.09,'11111222,11111222,11111222' 
TABS,ioos:station:wmo:42046:1,2005-12-03T07:00:00Z,27.8903,-94.0367,4.0,9.01703388,195.2385746,10.98,'11111222,11111222,11111222' 
TABS,ioos:station:wmo:42046:1,2005-12-03T07:30:00Z,27.8903,-94.0367,4.0,9.231863301,192.0039113,12.53,'11111222,11111222,11111222' 
TABS,ioos:station:wmo:42046:1,2005-12-03T08:00:00Z,27.8903,-94.0367,4.0,9.636270025,195.406524,12.23,'11111222,11111222,11111222' 
TABS,ioos:station:wmo:42046:1,2005-12-03T08:30:00Z,27.8903,-94.0367,4.0,9.291248571,192.241376,11.93,'11111222,11111222,11111222' 
TABS,ioos:station:wmo:42046:1,2005-12-03T09:00:00Z,27.8903,-94.0367,4.0,9.584492683,189.6099261,13.21,'11111222,11111222,11111222' 
TABS,ioos:station:wmo:42046:1,2005-12-03T09:30:00Z,27.8903,-94.0367,4.0,9.903701328,196.0011959,12.97,'11111222,11111222,11111222' 
TABS,ioos:station:wmo:42046:1,2005-12-03T10:00:00Z,27.8903,-94.0367,4.0,9.747635611,197.4313367,11.76,'11111222,11111222,11111222' 
TABS,ioos:station:wmo:42046:1,2005-12-03T10:30:00Z,27.8903,-94.0367,4.0,9.1708233,198.8302523,12.01,'11111222,11111222,11111222' 
TABS,ioos:station:wmo:42046:1,2005-12-03T11:00:00Z,27.8903,-94.0367,4.0,9.288514413,199.2349013,11.5,'11111222,11111222,11111222' 
TABS,ioos:station:wmo:42046:1,2005-12-03T11:30:00Z,27.8903,-94.0367,4.0,9.319683471,197.8713157,12.17,'11111222,11111222,11111222' 
TABS,ioos:station:wmo:42046:1,2005-12-03T12:00:00Z,27.8903,-94.0367,4.0,9.661392239,197.77873,13.01,'11111222,11111222,11111222' 
TABS,ioos:station:wmo:42046:1,2005-12-03T12:30:00Z,27.8903,-94.0367,4.0,9.022821067,194.6370793,11.98,'11111222,11111222,11111222' 
TABS,ioos:station:wmo:42046:1,2005-12-03T13:00:00Z,27.8903,-94.0367,4.0,8.171034206,193.9513876,10.24,'11111222,11111222,11111222' 
TABS,ioos:station:wmo:42046:1,2005-12-03T13:30:00Z,27.8903,-94.0367,4.0,8.052838009,190.8077808,10.84,'11111222,11111222,11111222' 
TABS,ioos:station:wmo:42046:1,2005-12-03T14:00:00Z,27.8903,-94.0367,4.0,7.915251102,191.3669011,9.78,'11111222,11111222,11111222' 
TABS,ioos:station:wmo:42046:1,2005-12-03T14:30:00Z,27.8903,-94.0367,4.0,8.082481055,187.6791563,10.34,'11111222,11111222,11111222' 
TABS,ioos:station:wmo:42046:1,2005-12-03T15:00:00Z,27.8903,-94.0367,4.0,7.969253415,185.6893285,10.51,'11111222,11111222,11111222' 
TABS,ioos:station:wmo:42046:1,2005-12-03T15:30:00Z,27.8903,-94.0367,4.0,8.498105671,189.9612993,10.72,'11111222,11111222,11111222' 
TABS,ioos:station:wmo:42046:1,2005-12-03T16:00:00Z,27.8903,-94.0367,4.0,8.890697385,189.4519159,11.23,'11111222,11111222,11111222' 
TABS,ioos:station:wmo:42046:1,2005-12-03T16:30:00Z,27.8903,-94.0367,4.0,8.872293954,191.3101165,10.98,'11111222,11111222,11111222' 
TABS,ioos:station:wmo:42046:1,2005-12-03T17:00:00Z,27.8903,-94.0367,4.0,8.73341285,188.8261581,10.95,'11111222,11111222,11111222' 
TABS,ioos:station:wmo:42046:1,2005-12-03T17:30:00Z,27.8903,-94.0367,4.0,8.629310517,186.7216684,10.86,'11111222,11111222,11111222' 
TABS,ioos:station:wmo:42046:1,2005-12-03T18:00:00Z,27.8903,-94.0367,4.0,9.134796112,190.2152718,11.6,'11111222,11111222,11111222' 
TABS,ioos:station:wmo:42046:1,2005-12-03T18:30:00Z,27.8903,-94.0367,4.0,9.210819725,190.3829255,11.21,'11111222,11111222,11111222' 
TABS,ioos:station:wmo:42046:1,2005-12-03T19:00:00Z,27.8903,-94.0367,4.0,8.328036984,190.446564,10.72,'11111222,11111222,11111222' 
TABS,ioos:station:wmo:42046:1,2005-12-03T19:30:00Z,27.8903,-94.0367,4.0,8.485575997,188.6077465,10.99,'11111222,11111222,11111222' 
TABS,ioos:station:wmo:42046:1,2005-12-03T20:00:00Z,27.8903,-94.0367,4.0,8.886039613,191.4239236,11.05,'11111222,11111222,11111222' 
TABS,ioos:station:wmo:42046:1,2005-12-03T20:30:00Z,27.8903,-94.0367,4.0,8.47030696,191.509105,10.54,'11111222,11111222,11111222' 
TABS,ioos:station:wmo:42046:1,2005-12-03T21:00:00Z,27.8903,-94.0367,4.0,8.861027029,191.9188123,11.55,'11111222,11111222,11111222' 
TABS,ioos:station:wmo:42046:1,2005-12-03T21:30:00Z,27.8903,-94.0367,4.0,8.70726708,190.1873224,11.01,'11111222,11111222,11111222' 
TABS,ioos:station:wmo:42046:1,2005-12-03T22:00:00Z,27.8903,-94.0367,4.0,8.050801202,189.0764114,10.53,'11111222,11111222,11111222' 
TABS,ioos:station:wmo:42046:1,2005-12-03T22:30:00Z,27.8903,-94.0367,4.0,7.689297757,187.6982399,10.12,'11111222,11111222,11111222' 
TABS,ioos:station:wmo:42046:1,2005-12-03T23:00:00Z,27.8903,-94.0367,4.0,8.418277734,187.3024909,10.92,'11111222,11111222,11111222' 
TABS,ioos:station:wmo:42046:1,2005-12-03T23:30:00Z,27.8903,-94.0367,4.0,8.696694774,185.9402338,10.62,'11111222,11111222,11111222' 
TABS,ioos:station:wmo:42046:1,2005-12-04T00:00:00Z,27.8903,-94.0367,4.0,8.519395518,182.6913271,10.82,'11111222,11111222,11111222' 
TABS,ioos:station:wmo:42046:1,2005-12-04T00:30:00Z,27.8903,-94.0367,4.0,8.170201956,186.9599431,10.61,'11111222,11111222,11111222' 
TABS,ioos:station:wmo:42046:1,2005-12-04T01:00:00Z,27.8903,-94.0367,4.0,8.707755164,185.337598,10.84,'11111222,11111222,11111222' 
TABS,ioos:station:wmo:42046:1,2005-12-04T01:30:00Z,27.8903,-94.0367,4.0,8.954356482,184.2271418,11.19,'11111222,11111222,11111222' 
TABS,ioos:station:wmo:42046:1,2005-12-04T02:00:00Z,27.8903,-94.0367,4.0,8.908540846,182.5093133,11.72,'11111222,11111222,11111222' 
TABS,ioos:station:wmo:42046:1,2005-12-04T02:30:00Z,27.8903,-94.0367,4.0,9.411742665,182.862609,12.32,'11111222,11111222,11111222' 
TABS,ioos:station:wmo:42046:1,2005-12-04T03:00:00Z,27.8903,-94.0367,4.0,8.603348185,178.4016771,11.18,'11111222,11111222,11111222' 
TABS,ioos:station:wmo:42046:1,2005-12-04T03:30:00Z,27.8903,-94.0367,4.0,8.903796943,181.6735399,12.38,'11111222,11111222,11111222' 
TABS,ioos:station:wmo:42046:1,2005-12-04T04:00:00Z,27.8903,-94.0367,4.0,9.418051816,187.3817674,11.84,'11111222,11111222,11111222' 
TABS,ioos:station:wmo:42046:1,2005-12-04T04:30:00Z,27.8903,-94.0367,4.0,9.458990432,184.4871741,11.63,'11111222,11111222,11111222' 
TABS,ioos:station:wmo:42046:1,2005-12-04T05:00:00Z,27.8903,-94.0367,4.0,8.677891449,182.4438706,11.08,'11111222,11111222,11111222' 
TABS,ioos:station:wmo:42046:1,2005-12-04T05:30:00Z,27.8903,-94.0367,4.0,8.390166864,185.608865,10.44,'11111222,11111222,11111222' 
TABS,ioos:station:wmo:42046:1,2005-12-04T06:00:00Z,27.8903,-94.0367,4.0,7.177701582,185.0356337,9.17,'11111222,11111222,11111222' 
TABS,ioos:station:wmo:42046:1,2005-12-04T06:30:00Z,27.8903,-94.0367,4.0,7.636988935,190.8687104,9.85,'11111222,11111222,11111222' 
TABS,ioos:station:wmo:42046:1,2005-12-04T07:00:00Z,27.8903,-94.0367,4.0,7.732489897,192.47273,9.62,'11111222,11111222,11111222' 
TABS,ioos:station:wmo:42046:1,2005-12-04T07:30:00Z,27.8903,-94.0367,4.0,7.878705477,186.998929,10.25,'11111222,11111222,11111222' 
TABS,ioos:station:wmo:42046:1,2005-12-04T08:00:00Z,27.8903,-94.0367,4.0,7.251765302,181.2644609,9.12,'11111222,11111222,11111222' 
TABS,ioos:station:wmo:42046:1,2005-12-04T08:30:00Z,27.8903,-94.0367,4.0,7.613783554,181.8065703,9.99,'11111222,11111222,11111222' 
TABS,ioos:station:wmo:42046:1,2005-12-04T09:00:00Z,27.8903,-94.0367,4.0,7.920511347,180.6512693,9.86,'11111222,11111222,11111222' 
TABS,ioos:station:wmo:42046:1,2005-12-04T09:30:00Z,27.8903,-94.0367,4.0,7.862874792,174.0141032,10.28,'11111222,11111222,11111222' 
TABS,ioos:station:wmo:42046:1,2005-12-04T10:00:00Z,27.8903,-94.0367,4.0,9.103713528,178.3636372,11.52,'11111222,11111222,11111222' 
TABS,ioos:station:wmo:42046:1,2005-12-04T10:30:00Z,27.8903,-94.0367,4.0,7.78257027,181.4727819,11.28,'11111222,11111222,11111222' 
TABS,ioos:station:wmo:42046:1,2005-12-04T11:00:00Z,27.8903,-94.0367,4.0,7.775043408,177.9363956,9.73,'11111222,11111222,11111222' 
TABS,ioos:station:wmo:42046:1,2005-12-04T11:30:00Z,27.8903,-94.0367,4.0,6.891044914,179.0024191,9.14,'11111222,11111222,11111222' 
TABS,ioos:station:wmo:42046:1,2005-12-04T12:00:00Z,27.8903,-94.0367,4.0,7.252758096,183.3991359,9.89,'11111222,11111222,11111222' 
TABS,ioos:station:wmo:42046:1,2005-12-04T12:30:00Z,27.8903,-94.0367,4.0,7.558002382,184.9338199,9.78,'11111222,11111222,11111222' 
TABS,ioos:station:wmo:42046:1,2005-12-04T13:00:00Z,27.8903,-94.0367,4.0,7.048475012,184.1495245,8.93,'11111222,11111222,11111222' 
TABS,ioos:station:wmo:42046:1,2005-12-04T13:30:00Z,27.8903,-94.0367,4.0,6.347613725,186.2407082,8.36,'11111222,11111222,11111222' 
TABS,ioos:station:wmo:42046:1,2005-12-04T14:00:00Z,27.8903,-94.0367,4.0,5.957063035,182.7905632,8.04,'11111222,11111222,11111222' 
TABS,ioos:station:wmo:42046:1,2005-12-04T14:30:00Z,27.8903,-94.0367,4.0,4.893311762,177.8921201,6.78,'11111222,11111222,11111222' 
TABS,ioos:station:wmo:42046:1,2005-12-04T15:00:00Z,27.8903,-94.0367,4.0,4.835007756,182.6081475,6.97,'11111222,11111222,11111222' 
TABS,ioos:station:wmo:42046:1,2005-12-04T15:30:00Z,27.8903,-94.0367,4.0,6.530275645,190.0539098,8.11,'11111222,11111222,11111222' 
TABS,ioos:station:wmo:42046:1,2005-12-04T16:00:00Z,27.8903,-94.0367,4.0,6.06066828,180.8510733,7.67,'11111222,11111222,11111222' 
TABS,ioos:station:wmo:42046:1,2005-12-04T16:30:00Z,27.8903,-94.0367,4.0,4.628196193,174.9178742,6.24,'11111222,11111222,11111222' 
TABS,ioos:station:wmo:42046:1,2005-12-04T17:00:00Z,27.8903,-94.0367,4.0,4.16389241,182.4778035,5.67,'11111222,11111222,11111222' 
TABS,ioos:station:wmo:42046:1,2005-12-04T17:30:00Z,27.8903,-94.0367,4.0,5.518496172,187.601697,7.03,'11111222,11111222,11111222' 
TABS,ioos:station:wmo:42046:1,2005-12-04T18:00:00Z,27.8903,-94.0367,4.0,5.280037879,179.7831825,6.71,'11111222,11111222,11111222' 
TABS,ioos:station:wmo:42046:1,2005-12-04T18:30:00Z,27.8903,-94.0367,4.0,5.830548859,180.7863792,7.64,'11111222,11111222,11111222' 
TABS,ioos:station:wmo:42046:1,2005-12-04T19:00:00Z,27.8903,-94.0367,4.0,5.374104577,182.2396812,6.98,'11111222,11111222,11111222' 